FW0288 Weather Reports


time (UTC)temp
F
wind
direction
speed
knots
gust
knots
rain 1hr
in
rain 24hr
in
rain mn
in
humidity
%
barometer
mb
20260503033006 54 237 0.0 0.9 0.00 0.00 0.00 20 1010.6
20260503031504 55 221 0.0 0.9 0.00 0.00 0.00 20 1010.4
20260503030003 57 198 0.0 3.5 0.00 0.00 0.00 18 1010.4
20260503024503 59 360 0.0 0.0 0.00 0.00 0.00 18 1010.4
20260503023002 62 360 0.0 0.0 0.00 0.00 0.00 13 1010.3
20260503021506 63 360 0.0 0.0 0.00 0.00 0.00 12 1010.1
20260503020002 64 360 0.0 2.6 0.00 0.00 0.00 12 1010.0
20260503014501 65 360 0.0 2.6 0.00 0.00 0.00 12 1010.0
20260503013101 66 360 0.0 3.5 0.00 0.00 0.00 12 1009.9
20260503011610 66 360 0.9 4.3 0.00 0.00 0.00 12 1009.9
20260503010059 67 360 0.0 4.3 0.00 0.00 0.00 11 1009.9
20260503004559 67 360 0.9 5.2 0.00 0.00 0.00 10 1009.9
20260503003057 68 360 0.0 5.2 0.00 0.00 0.00 11 1009.9
20260503001606 67 360 0.9 7.0 0.00 0.00 0.00 11 1010.0
20260503000100 67 360 0.9 4.3 0.00 0.00 0.00 11 1010.1
20260502234554 68 360 0.9 5.2 0.00 0.00 0.00 15 1010.1
20260502233053 68 122 0.0 7.0 0.00 0.00 0.00 11 1010.3
20260502231552 68 360 0.9 10.4 0.00 0.00 0.00 13 1010.4
20260502230049 69 53 0.9 6.1 0.00 0.00 0.00 11 1010.4
20260502224548 67 115 1.7 7.0 0.00 0.00 0.00 12 1010.6
20260502223047 68 360 2.6 8.7 0.00 0.00 0.00 16 1010.8
20260502221543 67 360 0.9 3.5 0.00 0.00 0.00 14 1011.0
20260502220042 67 360 0.9 4.3 0.00 0.00 0.00 13 1011.3
20260502214542 68 109 0.9 8.7 0.00 0.00 0.00 16 1011.5
20260502213039 67 130 0.9 8.7 0.00 0.00 0.00 18 1011.9
20260502211535 67 14 1.7 5.2 0.00 0.00 0.00 13 1012.2
20260502210033 67 360 0.0 7.0 0.00 0.00 0.00 16 1012.4
20260502204533 66 360 1.7 7.0 0.00 0.00 0.00 15 1012.6
20260502203029 66 360 1.7 7.8 0.00 0.00 0.00 16 1012.8
20260502201528 66 360 1.7 9.6 0.00 0.00 0.00 17 1012.9
20260502200027 66 360 0.0 7.0 0.00 0.00 0.00 16 1013.1
20260502194524 66 360 0.9 5.2 0.00 0.00 0.00 22 1013.3
20260502193024 65 360 0.9 4.3 0.00 0.00 0.00 20 1013.5
20260502191521 64 360 0.9 7.8 0.00 0.00 0.00 21 1013.9
20260502190018 63 360 1.7 5.2 0.00 0.00 0.00 20 1014.2
20260502184526 64 360 0.9 7.8 0.00 0.00 0.00 19 1014.5
20260502183026 64 360 0.9 4.3 0.00 0.00 0.00 22 1014.7
20260502181514 62 360 0.0 7.0 0.00 0.00 0.00 19 1014.9
20260502163053 60 126 0.0 2.6 0.00 0.00 0.00 26 1016.0
20260502161541 61 340 0.0 2.6 0.00 0.00 0.00 21 1016.2
20260502151524 60 360 0.0 0.0 0.00 0.00 0.00 29 1016.8
20260502123037 38 312 0.0 0.0 0.00 0.00 0.00 58 1017.5
20260502121544 37 312 0.0 0.0 0.00 0.00 0.00 57 1017.4
20260502114528 37 311 0.0 0.0 0.00 0.00 0.00 57 1017.3
20260502113027 37 311 0.0 0.0 0.00 0.00 0.00 58 1017.3
20260502111527 38 311 0.0 0.0 0.00 0.00 0.00 56 1017.3
20260502110021 39 311 0.0 0.0 0.00 0.00 0.00 54 1017.1
20260502104518 40 311 0.0 0.0 0.00 0.00 0.00 52 1017.1
20260502103014 41 266 0.0 0.0 0.00 0.00 0.00 49 1017.1
20260502101513 42 266 0.0 0.0 0.00 0.00 0.00 48 1017.0
20260502091504 43 257 0.0 1.7 0.00 0.00 0.00 45 1016.6
20260502070056 45 255 0.0 0.0 0.00 0.00 0.00 45 1017.6
20260502064548 46 255 0.0 0.0 0.00 0.00 0.00 45 1017.7
20260502063045 46 257 0.0 0.0 0.00 0.00 0.00 44 1017.8
20260502061542 47 257 0.0 1.7 0.00 0.00 0.00 41 1017.7
20260502060038 48 304 0.0 0.0 0.00 0.00 0.00 40 1017.7
20260502054541 48 309 0.0 0.0 0.00 0.00 0.00 38 1017.7
20260502053037 49 312 0.0 0.0 0.00 0.00 0.00 37 1017.6
20260502051543 50 312 0.0 0.0 0.00 0.00 0.00 37 1017.6
20260502050038 50 311 0.0 0.0 0.00 0.00 0.00 35 1017.6
20260502044538 50 327 0.0 0.0 0.00 0.00 0.00 36 1017.6
20260502043035 50 360 0.0 0.0 0.00 0.00 0.00 36 1017.7
20260502041554 50 360 0.0 0.0 0.00 0.00 0.00 35 1017.6
20260502040036 50 360 0.0 0.0 0.00 0.00 0.00 34 1017.5
20260502034534 51 360 0.0 0.0 0.00 0.00 0.00 35 1017.4
20260502033040 51 360 0.0 0.0 0.00 0.00 0.00 34 1017.0